Location: Piotrkow Trybunalski
(51.4000°N, 19.6830°E)
Time: 12:17:36
(UTC+02:00)

A-11 Canister half - Pass Details

Date: 05 February 2023
Orbit: 1526 x 1682 km, 47.3° (Epoch: 26 March)

Event Time Altitude Azimuth Distance (km) Brightness Sun altitude
Rises 11:22:13 0° 287° (WNW) 4,709 11.3 22.3°
Reaches altitude 10° 11:25:38 10° 278° (W) 3,740 10.9 22.4°
Maximum altitude 11:33:37 32° 220° (SW) 2,450 11.0 22.5°
Drops below altitude 10° 11:41:49 10° 162° (SSE) 3,830 12.8 22.6°
Sets 11:45:23 0° 153° (SSE) 4,837 12.7 22.6°
